Location: Omaha
(41.2590°N, 95.9380°W)
Time: 00:14:43
(UTC-05:00)

ZACube-1 - Visible Passes

Search period start: 22 July 2018 00:00
Search period end: 01 August 2018 00:00
Orbit: 584 x 668 km, 97.6° (Epoch: 21 July)

Date Brightness Start Highest point End Pass type
(mag) Time Alt. Az. Time Alt. Az. Time Alt. Az.
25 Jul ? 21:29:02 10° WSW 21:30:58 13° W 21:32:55 10° WNW visible
29 Jul ? 21:08:10 10° SW 21:11:20 21° W 21:14:31 10° NW visible
30 Jul ? 21:28:47 10° WSW 21:30:42 13° W 21:32:38 10° WNW visible
